GW5356 Weather Reports


time (UTC)temp
F
wind
direction
speed
knots
gust
knots
rain 1hr
in
rain 24hr
in
rain mn
in
humidity
%
barometer
mb
20260510233053 77 136 0.0 3.5 0.00 0.00 0.00 35 1014.7
20260510231556 78 0.9 3.5 0.00 0.00 0.00 33 1014.6
20260510230056 0 0.0 0.0 0.00 0.00 0.00 1014.6
20260510224553 0 0.0 0.0 0.00 0.00 0.00 1014.6
20260510223054 0 0.0 0.0 0.00 0.00 0.00 1014.5
20260510221555 0 0.0 0.0 0.00 0.00 0.00 1014.6
20260510220054 0 0.0 0.0 0.00 0.00 0.00 1014.5
20260510214552 80 1.7 4.3 0.00 0.00 0.00 28 1014.4
20260510213053 0 349 2.6 0.0 0.00 0.00 0.00 1014.3
20260510211554 81 22 2.6 4.3 0.00 0.00 0.00 28 1014.1
20260510210057 0 0.0 0.0 0.00 0.00 0.00 1014.2
20260510204604 80 127 0.9 6.1 0.00 0.00 0.00 26 1014.4
20260510203103 0 0.0 0.0 0.00 0.00 0.00 1014.4
20260510201554 81 105 2.6 4.3 0.00 0.00 0.00 27 1014.5
20260510200054 0 2.6 3.5 0.00 0.00 0.00 1014.6
20260510194559 0 0.0 0.0 0.00 0.00 0.00 1014.8
20260510193057 82 216 1.7 6.1 0.00 0.00 0.00 27 1014.9
20260510191557 81 144 0.9 5.2 0.00 0.00 0.00 27 1015.0
20260510190057 81 88 1.7 3.5 0.00 0.00 0.00 27 1015.3
20260510184600 81 136 0.0 3.5 0.00 0.00 0.00 27 1015.2
20260510183055 81 101 0.9 5.2 0.00 0.00 0.00 28 1015.4
20260510181553 81 0.9 3.5 0.00 0.00 0.00 27 1015.4
20260510180052 81 23 2.6 4.3 0.00 0.00 0.00 26 1015.6
20260510174558 81 143 0.9 5.2 0.00 0.00 0.00 26 1015.8
20260510173051 80 0.9 2.6 0.00 0.00 0.00 28 1016.0
20260510171607 79 23 1.7 5.2 0.00 0.00 0.00 29 1016.1
20260510170055 79 229 0.9 5.2 0.00 0.00 0.00 29 1016.2
20260510164556 79 256 1.7 4.3 0.00 0.00 0.00 30 1016.2
20260510163101 0 1.7 0.0 0.00 0.00 0.00 1016.2
20260510161553 78 50 0.9 4.3 0.00 0.00 0.00 27 1016.4
20260510160054 78 348 0.0 4.3 0.00 0.00 0.00 27 1016.5
20260510154603 77 221 0.0 2.6 0.00 0.00 0.00 32 1016.4
20260510153057 76 77 0.9 4.3 0.00 0.00 0.00 1016.5
20260510151555 76 150 0.9 4.3 0.00 0.00 0.00 35 1016.5
20260510150057 75 124 1.7 5.2 0.00 0.00 0.00 38 1016.6
20260510144607 75 231 0.9 3.5 0.00 0.00 0.00 40 1016.6
20260510143107 73 131 1.7 2.6 0.00 0.00 0.00 41 1016.5
20260510141603 72 39 0.9 3.5 0.00 0.00 0.00 42 1016.5
20260510140053 72 57 1.7 3.5 0.00 0.00 0.00 47 1016.5
20260510134604 71 87 0.9 3.5 0.00 0.00 0.00 51 1016.5
20260510133052 69 99 1.7 2.6 0.00 0.00 0.00 54 1016.4
20260510131551 69 58 1.7 2.6 0.00 0.00 0.00 56 1016.4
20260510130055 68 142 0.9 1.7 0.00 0.00 0.00 57 1016.2
20260510124602 66 91 0.9 1.7 0.00 0.00 0.00 59 1016.1
20260510123055 65 139 0.9 2.6 0.00 0.00 0.00 63 1016.0
20260510121551 64 82 0.9 2.6 0.00 0.00 0.00 66 1016.0
20260510120052 63 96 0.9 1.7 0.00 0.00 0.00 70 1015.6
20260510114554 61 70 0.9 2.6 0.00 0.00 0.00 70 1015.8
20260510113052 60 122 1.7 2.6 0.00 0.00 0.00 73 1015.1
20260510111605 59 117 0.9 1.7 0.00 0.00 0.00 76 1014.9
20260510110052 56 73 0.0 0.9 0.00 0.00 0.00 82 1014.8
20260510104611 56 70 0.0 0.9 0.00 0.00 0.00 85 1014.5
20260510103055 55 0 0.0 0.9 0.00 0.00 0.00 87 1014.2
20260510101555 55 70 0.0 0.9 0.00 0.00 0.00 86 1013.9
20260510094555 56 0 0.0 0.0 0.00 0.00 0.00 86 1013.5
20260510093055 55 0 0.0 0.0 0.00 0.00 0.00 87 1013.4
20260510091555 55 0 0.0 0.0 0.00 0.00 0.00 88 1013.4
20260510090053 56 0 0.0 0.0 0.00 0.00 0.00 89 1013.2
20260510084552 57 0 0.0 0.0 0.00 0.00 0.00 89 1013.3
20260510083054 57 0 0.0 0.9 0.00 0.00 0.00 90 1013.1
20260510081620 57 0 0.0 0.9 0.00 0.00 0.00 89 1012.8
20260510080051 58 6 0.9 1.7 0.00 0.00 0.00 87 1012.8
20260510074557 59 79 0.0 0.9 0.00 0.00 0.00 83 1012.4
20260510073052 59 76 0.0 0.9 0.00 0.00 0.00 86 1012.5
20260510071553 59 75 0.0 0.9 0.00 0.00 0.00 87 1012.4
20260510070100 59 0 0.0 0.9 0.00 0.00 0.00 88 1012.4
20260510064553 60 93 0.9 1.7 0.00 0.00 0.00 88 1012.3
20260510063059 60 86 0.9 0.9 0.00 0.00 0.00 87 1012.4
20260510061556 61 83 0.9 2.6 0.00 0.00 0.00 87 1012.4
20260510060059 61 67 0.9 1.7 0.00 0.00 0.00 86 1012.6
20260510054558 62 126 0.0 1.7 0.00 0.00 0.00 84 1012.6
20260510053057 62 98 0.0 0.9 0.00 0.00 0.00 85 1012.7
20260510051640 62 0 0.0 0.9 0.00 0.00 0.00 86 1012.6
20260510050056 60 98 0.0 0.9 0.00 0.00 0.00 89 1012.9
20260510044556 60 0 0.0 0.9 0.00 0.00 0.00 88 1012.9
20260510043145 61 0 0.0 0.9 0.00 0.00 0.00 87 1012.8
20260510041558 62 97 0.0 0.9 0.00 0.00 0.00 86 1012.9
20260510040057 62 98 0.0 0.9 0.00 0.00 0.00 85 1012.7
20260510034558 63 0 0.0 0.9 0.00 0.00 0.00 84 1013.0
20260510033057 64 0 0.0 0.9 0.00 0.00 0.00 82 1012.8
20260510031625 64 98 0.0 0.9 0.00 0.00 0.00 82 1012.8
20260510030057 64 0 0.0 0.0 0.00 0.00 0.00 82 1012.8
20260510024604 64 0 0.0 0.0 0.00 0.00 0.00 82 1012.9
20260510023059 64 0 0.0 0.0 0.00 0.00 0.00 80 1012.8
20260510021552 65 0 0.0 0.9 0.00 0.00 0.00 79 1012.5
20260510020054 66 0 0.0 0.9 0.00 0.00 0.00 78 1012.4
20260510014552 66 0 0.0 1.7 0.00 0.00 0.00 77 1012.2
20260510013051 67 0 0.9 2.6 0.00 0.00 0.00 76 1012.0
20260510011609 67 203 0.0 1.7 0.00 0.00 0.00 75 1011.9
20260510010106 68 0 0.0 1.7 0.00 0.00 0.00 74 1011.6
20260510004553 68 310 0.0 1.7 0.00 0.00 0.00 73 1011.2
20260510003101 68 228 0.0 0.9 0.00 0.00 0.00 72 1010.8
20260510001554 69 0 0.0 2.6 0.00 0.00 0.00 71 1010.6
20260510000055 69 281 0.0 1.7 0.00 0.00 0.00 69 1010.4
20260509234558 70 81 0.0 0.9 0.00 0.00 0.00 68 1010.1